Weather History for PASI - July, 2014

Change the Weather History Date:

Tuesday, July 8, 2014

  Actual Average Record
Temperature  
Mean Temperature 54 °F -  
Max Temperature 55 °F 61 °F 77 °F (1965)
Min Temperature 53 °F 50 °F 43 °F (1950)
Degree Days  
Heating Degree Days 11    
Growing Degree Days 4 (Base 50)    
Moisture  
Dew Point 53 °F    
Average Humidity 94    
Maximum Humidity 100    
Minimum Humidity 86    
Precipitation  
Precipitation 0.84 in - - ()
Sea Level Pressure  
Sea Level Pressure 30.06 in    
Wind  
Wind Speed 5 mph (SSE)    
Max Wind Speed 12 mph    
Max Gust Speed 23 mph    
Visibility 6 miles    
Events Rain    
Averages and records for this station are not official NWS values.
T = Trace of Precipitation, MM = Missing Value Source: NWS Daily Summary

Daily Weather History Graph

Daily Weather History Graph

Search for Another Location

Airport or City:

Trip Planner

Search our weather history database for the weather conditions in past years. The results will help you decide how hot, cold, wet, or windy it might be!

Date:

Astronomy

Jul. 08, 2014 Rise Set
Actual Time 4:19 AM AKDT 9:52 PM AKDT
Civil Twilight 3:15 AM AKDT 10:56 PM AKDT
Nautical Twilight 1:38 AM AKDT 12:34 AM AKDT
Astronomical Twilight Sun does not set Sun does not set
Moon 5:45 PM AKDT (7/8) 1:27 AM AKDT (7/8)
Length of Visible Light 19h 40m
Length of Day
17h 33m
Waxing Gibbous, 82% of the Moon is Illuminated
Jul 8
Waxing Gibbous
Jul 12
Full
Jul 18
Last Quarter
Jul 26
New
Aug 3
First Quarter

Hourly Weather History & Observations

Time (AKDT) Temp. Dew Point Humidity Pressure Visibility Wind Dir Wind Speed Gust Speed Precip Events Conditions
12:40 AM 54.0 °F 53.1 °F 97% 30.07 in 7.0 mi SE 3.5 mph - 0.03 in Rain Light Rain
12:53 AM 55.0 °F 53.1 °F 93% 30.07 in 10.0 mi East 3.5 mph - 0.04 in Rain Light Rain
1:45 AM 55.0 °F 54.0 °F 96% 30.07 in 10.0 mi South 6.9 mph - 0.00 in   Overcast
1:53 AM 55.0 °F 54.0 °F 96% 30.07 in 9.0 mi SSE 5.8 mph - 0.00 in Rain Light Rain
2:24 AM 55.0 °F 54.0 °F 96% 30.06 in 10.0 mi South 4.6 mph - 0.00 in   Overcast
2:53 AM 55.0 °F 53.1 °F 93% 30.05 in 10.0 mi East 3.5 mph - 0.00 in   Overcast
3:13 AM 55.9 °F 52.0 °F 87% 30.05 in 10.0 mi SE 8.1 mph - N/A   Overcast
3:53 AM 55.0 °F 52.0 °F 89% 30.05 in 9.0 mi SSE 10.4 mph - 0.00 in Rain Light Rain
4:53 AM 55.0 °F 52.0 °F 89% 30.05 in 10.0 mi SE 4.6 mph - 0.00 in   Overcast
5:53 AM 55.0 °F 53.1 °F 93% 30.04 in 8.0 mi East 3.5 mph - 0.01 in   Overcast
6:27 AM 54.0 °F 53.1 °F 97% 30.04 in 2.5 mi ESE 5.8 mph - 0.02 in Rain Light Rain
6:53 AM 54.0 °F 53.1 °F 97% 30.04 in 1.8 mi SE 4.6 mph - 0.11 in Rain Heavy Rain
6:55 AM 54.0 °F 53.1 °F 97% 30.04 in 3.0 mi SE 4.6 mph - 0.00 in Rain Light Rain
7:53 AM 54.0 °F 53.1 °F 97% 30.04 in 5.0 mi ESE 3.5 mph - N/A Rain Light Rain
8:22 AM 54.0 °F 53.1 °F 97% 30.04 in 6.0 mi East 6.9 mph - 0.00 in   Overcast
8:53 AM 54.0 °F 54.0 °F 100% 30.04 in 9.0 mi SE 3.5 mph - 0.01 in   Overcast
9:57 AM 55.0 °F 53.1 °F 93% 30.04 in 1.8 mi SW 11.5 mph - 0.01 in Rain Light Rain
10:53 AM 54.0 °F 52.0 °F 93% 30.04 in 5.0 mi SSE 4.6 mph - 0.20 in Rain Light Rain
11:53 AM 55.9 °F 54.0 °F 93% 30.04 in 4.0 mi Calm Calm - 0.02 in Rain Light Rain
12:53 PM 55.4 °F 53.6 °F 94% 30.05 in 4.0 mi SSW 6.9 mph - N/A Rain Light Rain
12:57 PM 55.0 °F 53.1 °F 93% 30.05 in 5.0 mi SSW 11.5 mph - 0.00 in Rain Light Rain
1:04 PM 54.0 °F 53.1 °F 97% 30.05 in 4.0 mi South 9.2 mph - 0.01 in Rain Light Rain
1:12 PM 55.0 °F 53.1 °F 93% 30.05 in 4.0 mi South 8.1 mph - 0.03 in Rain Light Rain
1:53 PM 54.0 °F 52.0 °F 93% 30.06 in 4.0 mi South 9.2 mph 23.0 mph 0.10 in Rain Light Rain
2:15 PM 55.0 °F 51.1 °F 86% 30.05 in 10.0 mi South 8.1 mph - 0.00 in Rain Light Rain
2:44 PM 55.0 °F 52.0 °F 89% 30.06 in 4.0 mi South 8.1 mph - 0.01 in Rain Light Rain
2:53 PM 54.0 °F 52.0 °F 93% 30.06 in 4.0 mi SSE 4.6 mph - 0.03 in Rain Light Rain
3:08 PM 54.0 °F 53.1 °F 97% 30.06 in 4.0 mi SE 4.6 mph - 0.02 in Rain Light Rain
3:53 PM 55.0 °F 52.0 °F 89% 30.06 in 4.0 mi SE 3.5 mph - 0.06 in Rain Light Rain
4:07 PM 54.0 °F 52.0 °F 93% 30.06 in 2.0 mi SSE 4.6 mph - 0.04 in Rain Light Rain
4:15 PM 54.0 °F 52.0 °F 93% 30.06 in 4.0 mi ESE 4.6 mph - 0.06 in Rain Light Rain
4:53 PM 54.0 °F 52.0 °F 93% 30.06 in 4.0 mi SE 6.9 mph - 0.11 in Rain Light Rain
4:55 PM 54.0 °F 52.0 °F 93% 30.06 in 2.0 mi SSE 5.8 mph - 0.00 in Rain Light Rain
5:02 PM 55.0 °F 53.1 °F 93% 30.06 in 6.0 mi SSE 4.6 mph - 0.00 in Rain Light Rain
5:53 PM 55.0 °F 54.0 °F 96% 30.07 in 6.0 mi South 9.2 mph - 0.08 in Rain Light Rain
6:00 PM 55.0 °F 54.0 °F 96% 30.07 in 10.0 mi South 8.1 mph - 0.00 in Rain Light Rain
6:53 PM 55.0 °F 54.0 °F 96% 30.06 in 10.0 mi Variable 3.5 mph - 0.00 in Rain Light Rain
7:00 PM 55.9 °F 54.0 °F 93% 30.06 in 10.0 mi SSW 5.8 mph - 0.00 in   Overcast
7:28 PM 55.0 °F 53.1 °F 93% 30.06 in 4.0 mi SSW 3.5 mph - 0.01 in   Overcast
7:35 PM 55.0 °F 53.1 °F 93% 30.06 in 3.0 mi South 3.5 mph - 0.01 in   Overcast
7:53 PM 55.0 °F 53.1 °F 93% 30.06 in 3.0 mi South 5.8 mph - 0.07 in   Overcast
8:53 PM 55.0 °F 53.1 °F 93% 30.07 in 10.0 mi South 5.8 mph - N/A   Overcast
9:53 PM 53.6 °F 53.6 °F 100% 30.08 in 10.0 mi South 5.8 mph - N/A   Overcast
10:53 PM 54.0 °F 53.1 °F 97% 30.09 in 10.0 mi South 5.8 mph - N/A   Overcast
11:44 PM 54.0 °F 53.1 °F 97% 30.10 in 7.0 mi SW 5.8 mph - 0.00 in Rain Light Rain
11:53 PM 54.0 °F 53.1 °F 97% 30.10 in 8.0 mi SW 5.8 mph - 0.00 in Rain Light Rain